Hourly Data Report for September 30, 2017

All times are specified in Local Standard Time (LST). Add 1 hour to adjust for Daylight Saving Time where and when it is observed.

SAINT JOHN A
NEW BRUNSWICK

45°18'58.000" N
65°53'24.000" W
108.80 m
8104901
71609
YSJ

Download Data

Hourly Data (September 2017)
Hourly Data Report for September 30, 2017
Temp Definition
°C
Dew Point Temp Definition
°C
Rel Hum Definition
%
Wind Dir Definition
10's deg

Wind Spd Definition
km/h
Visibility Definition
km
Stn Press Definition
kPa
Hmdx Definition


Wind Chill Definition


Weather Definition


TIME
00:00 Legend Double Dagger 8.1 3.2 71 3 17 24.1 100.57     LegendNANA
01:00 Legend Double Dagger 6.8 3.5 79 4 13 24.1 100.62     LegendNANA
02:00 Legend Double Dagger 6.2 3.3 82 36 14 24.1 100.67     Mostly Cloudy
03:00 Legend Double Dagger 4.9 3.0 88 1 9 24.1 100.68     LegendNANA
04:00 Legend Double Dagger 3.2 2.1 93 36 7 24.1 100.74     LegendNANA
05:00 Legend Double Dagger 2.4 1.6 95 2 7 24.1 100.80     Mainly Clear
06:00 Legend Double Dagger 4.0 2.7 91 1 13 24.1 100.87     LegendNANA
07:00 Legend Double Dagger 4.8 2.5 85 35 13 24.1 100.98     LegendNANA
08:00 Legend Double Dagger 6.4 2.7 77 3 19 24.1 101.01     Mostly Cloudy
09:00 Legend Double Dagger 7.2 3.0 75 2 12 24.1 101.07     LegendNANA
10:00 Legend Double Dagger 8.8 3.0 67 2 18 24.1 101.11     LegendNANA
11:00 Legend Double Dagger 10.2 1.3 54 1 20 24.1 101.11     Mostly Cloudy
12:00 Legend Double Dagger 10.9 -0.9 44 36 12 24.1 101.11     LegendNANA
13:00 Legend Double Dagger 11.2 1.7 52 36 13 24.1 101.11     LegendNANA
14:00 Legend Double Dagger 12.4 0.5 44 36 14 24.1 101.09     Mostly Cloudy
15:00 Legend Double Dagger 11.6 0.0 44 36 8 24.1 101.08     LegendNANA
16:00 Legend Double Dagger 11.5 0.6 47 35 8 24.1 101.07     LegendNANA
17:00 Legend Double Dagger 10.8 1.0 50 1 11 24.1 101.06     Mainly Clear
18:00 Legend Double Dagger 8.2 2.2 65 30 7 24.1 101.09     LegendNANA
19:00 Legend Double Dagger 4.4 1.9 84 28 4 24.1 101.14     LegendNANA
20:00 Legend Double Dagger 1.6 0.4 92 1 4 24.1 101.18     Mainly Clear
21:00 Legend Double Dagger 1.1 0.6 97 2 5 24.1 101.18     LegendNANA
22:00 Legend Double Dagger -0.7 -1.3 96 36 2 24.1 101.21   -1 LegendNANA
23:00 Legend Double Dagger -1.5 -1.9 97 36 1 24.1 101.21   -2 Clear

Notes on Data Quality.

Legend

  • E = Estimated
  • M = Missing
  • NA = Not Available
  • ‡ = Partner data that is not subject to review by the National Climate Archives
Date modified: